User: anonymous   Login
Location: Unspecified
(0.0000°N, 0.0000°E)
Time: 01:30:03
(UTC+00:00)
Language:

CLOUDSAT - Orbit

View from above orbital plane
View from above orbital plane
View from above satellite
View from above satellite

Ground track
Ground track

The orbit data is extracted from the following two-line orbital elements,

1 29107U 06016A   16274.17463077  .00000145  00000-0  42171-4 0  9996
2 29107  98.2070 215.7974 0002005 106.7287 253.4132 14.57135015554567
Epoch (UTC): 30 September 2016 04:11:28
Eccentricity: 0.0002005
inclination: 98.2070°
perigee height: 701 km
apogee height: 704 km
right ascension of ascending node: 215.7974°
argument of perigee: 106.7287°
revolutions per day: 14.57135015
mean anomaly at epoch: 253.4132°
orbit number at epoch: 55456

The dashed part of the orbit path shows where the satellite is in the earth's shadow,  

DLR